Total_Precipitation_Accumulation
0.24 0.55 0.76 0.67 0.62 0.65 0.61 0.55 0.50 0.42 0.43 0.42 0.39 0.34 0.36 0.33 0.30 0.25 0.23 0.23 0.20 0.18 0.22 0.22 0.17 0.20 0.26 0.37 0.48 0.66 1.01 1.42 1.59 1.49 1.44 1.52 1.63 1.63 1.54 1.51 1.49 1.55 1.55 1.55
0.27 0.37 0.30 0.33 0.40 0.49 0.56 0.58 0.55 0.44 0.33 0.31 0.32 0.28 0.27 0.27 0.27 0.23 0.21 0.22 0.20 0.18 0.17 0.15 0.13 0.15 0.22 0.38 0.52 0.66 0.93 1.38 1.58 1.69 1.81 2.02 2.21 2.12 1.99 1.97 1.93 2.00 2.02 2.19
0.23 0.21 0.17 0.27 0.42 0.50 0.53 0.54 0.52 0.43 0.30 0.26 0.24 0.23 0.21 0.21 0.22 0.20 0.20 0.21 0.18 0.17 0.17 0.16 0.14 0.17 0.22 0.31 0.43 0.58 0.75 1.05 1.40 1.68 1.95 2.24 2.48 2.48 2.37 2.20 2.17 2.23 2.29 2.45
0.23 0.21 0.20 0.24 0.31 0.37 0.48 0.36 0.32 0.31 0.35 0.34 0.26 0.35 0.24 0.23 0.23 0.22 0.21 0.21 0.19 0.19 0.19 0.21 0.19 0.19 0.22 0.28 0.35 0.47 0.65 0.90 1.15 1.40 1.82 2.27 2.59 2.71 2.63 2.52 2.47 2.43 2.45 2.51
0.18 0.18 0.18 0.20 0.22 0.25 0.34 0.29 0.27 0.28 0.31 0.28 0.21 0.26 0.26 0.23 0.25 0.24 0.24 0.23 0.20 0.19 0.22 0.25 0.25 0.26 0.28 0.28 0.34 0.44 0.58 0.81 1.05 1.28 1.64 2.07 2.37 2.62 2.78 2.61 2.48 2.50 2.53 2.56
0.17 0.14 0.13 0.17 0.20 0.20 0.26 0.26 0.23 0.22 0.27 0.31 0.17 0.26 0.35 0.26 0.23 0.23 0.21 0.20 0.21 0.22 0.27 0.32 0.40 0.44 0.45 0.38 0.41 0.50 0.56 0.70 0.86 1.01 1.24 1.49 1.84 2.14 2.50 2.50 2.43 2.55 2.54 2.47
0.17 0.14 0.13 0.13 0.16 0.17 0.20 0.29 0.37 0.37 0.39 0.28 0.14 0.27 0.40 0.30 0.23 0.23 0.22 0.22 0.23 0.27 0.30 0.38 0.52 0.58 0.60 0.52 0.45 0.46 0.56 0.62 0.69 0.79 0.92 1.08 1.35 1.56 1.94 2.26 2.25 2.17 2.23 2.29
0.18 0.18 0.10 0.10 0.13 0.16 0.17 0.30 0.46 0.51 0.46 0.33 0.27 0.44 0.49 0.36 0.28 0.25 0.24 0.25 0.29 0.33 0.39 0.55 0.70 0.72 0.72 0.64 0.54 0.53 0.61 0.64 0.66 0.71 0.74 0.84 1.01 1.14 1.32 1.55 1.67 1.71 1.78 2.01
0.19 0.15 0.11 0.10 0.10 0.12 0.18 0.22 0.25 0.37 0.36 0.38 0.42 0.54 0.49 0.32 0.30 0.31 0.32 0.34 0.44 0.52 0.58 0.71 0.85 0.86 0.77 0.71 0.63 0.61 0.65 0.74 0.74 0.73 0.75 0.84 0.90 0.94 1.06 1.10 1.26 1.45 1.50 1.56
0.22 0.16 0.09 0.09 0.09 0.10 0.12 0.17 0.28 0.42 0.50 0.51 0.46 0.52 0.51 0.41 0.40 0.39 0.44 0.49 0.60 0.69 0.76 0.85 0.99 1.00 0.84 0.72 0.62 0.60 0.64 0.75 0.93 1.05 1.00 0.94 1.01 1.08 1.31 1.34 1.19 1.19 1.37 1.45
0.30 0.25 0.12 0.09 0.11 0.14 0.17 0.26 0.35 0.47 0.50 0.65 0.74 0.70 0.61 0.59 0.59 0.61 0.64 0.69 0.77 0.88 0.88 0.85 0.93 1.00 0.88 0.69 0.62 0.57 0.59 0.70 0.84 0.88 0.94 0.93 0.98 1.07 1.36 1.58 1.52 1.34 1.35 1.39
0.31 0.40 0.25 0.14 0.17 0.20 0.26 0.37 0.55 0.78 0.74 0.68 0.82 0.83 0.66 0.60 0.64 0.65 0.65 0.63 0.68 0.80 0.81 0.82 0.84 0.82 0.72 0.57 0.49 0.47 0.48 0.60 0.71 0.71 0.77 0.84 0.86 0.95 1.08 1.20 1.22 1.16 1.09 1.07
0.39 0.55 0.49 0.36 0.39 0.36 0.44 0.47 0.53 0.69 0.77 0.78 0.86 0.88 0.63 0.55 0.50 0.52 0.56 0.58 0.60 0.61 0.61 0.60 0.61 0.58 0.56 0.54 0.50 0.46 0.47 0.54 0.60 0.64 0.70 0.77 0.80 0.83 0.85 0.85 0.79 0.82 0.86 0.93
0.37 0.48 0.55 0.58 0.60 0.62 0.61 0.51 0.46 0.63 0.85 0.78 0.77 0.75 0.62 0.54 0.50 0.53 0.54 0.55 0.58 0.51 0.44 0.44 0.46 0.47 0.49 0.50 0.49 0.46 0.44 0.51 0.60 0.74 0.82 0.86 0.87 0.87 0.88 0.86 0.81 0.81 0.84 0.90
0.26 0.30 0.29 0.28 0.30 0.41 0.46 0.40 0.39 0.47 0.54 0.68 0.67 0.66 0.54 0.50 0.54 0.57 0.54 0.50 0.47 0.41 0.35 0.36 0.36 0.39 0.38 0.38 0.40 0.40 0.38 0.44 0.52 0.66 0.78 0.83 0.86 0.88 0.85 0.79 0.77 0.81 0.78 0.77
0.17 0.22 0.20 0.18 0.19 0.27 0.34 0.35 0.36 0.36 0.40 0.51 0.58 0.57 0.44 0.40 0.39 0.39 0.37 0.31 0.30 0.31 0.27 0.25 0.25 0.27 0.26 0.25 0.25 0.26 0.33 0.41 0.47 0.55 0.66 0.81 0.88 0.81 0.76 0.70 0.69 0.72 0.71 0.68
0.15 0.26 0.33 0.27 0.23 0.25 0.50 0.52 0.52 0.53 0.46 0.46 0.41 0.33 0.21 0.20 0.23 0.26 0.26 0.27 0.30 0.27 0.21 0.19 0.19 0.21 0.22 0.23 0.25 0.28 0.35 0.44 0.45 0.49 0.61 0.81 0.82 0.71 0.66 0.72 0.76 0.73 0.71 0.71
0.13 0.25 0.35 0.29 0.32 0.61 0.84 0.62 0.59 0.54 0.32 0.18 0.13 0.13 0.12 0.17 0.17 0.15 0.16 0.19 0.22 0.20 0.16 0.14 0.13 0.13 0.14 0.17 0.21 0.24 0.28 0.32 0.36 0.41 0.51 0.66 0.69 0.67 0.70 0.71 0.69 0.64 0.60 0.59
0.14 0.26 0.36 0.32 0.38 0.62 0.65 0.42 0.34 0.34 0.22 0.08 0.07 0.08 0.10 0.12 0.11 0.09 0.09 0.10 0.12 0.11 0.08 0.06 0.06 0.06 0.05 0.06 0.07 0.11 0.13 0.16 0.21 0.28 0.37 0.47 0.50 0.55 0.58 0.57 0.57 0.53 0.50 0.52
0.27 0.33 0.46 0.47 0.59 0.61 0.32 0.17 0.16 0.22 0.27 0.08 0.04 0.04 0.04 0.06 0.09 0.06 0.04 0.05 0.06 0.06 0.04 0.03 0.02 0.01 0.01 0.01 0.02 0.04 0.07 0.10 0.14 0.21 0.27 0.35 0.38 0.42 0.44 0.49 0.52 0.52 0.49 0.47
0.24 0.32 0.41 0.48 0.68 0.56 0.22 0.11 0.12 0.22 0.28 0.09 0.03 0.02 0.02 0.02 0.04 0.02 0.03 0.04 0.04 0.04 0.03 0.01 0.01 0.00 0.00 0.01 0.01 0.02 0.05 0.08 0.09 0.12 0.17 0.23 0.31 0.38 0.46 0.52 0.53 0.56 0.53 0.48
0.26 0.29 0.31 0.41 0.56 0.51 0.20 0.15 0.19 0.18 0.08 0.03 0.02 0.02 0.01 0.01 0.01 0.01 0.02 0.02 0.03 0.03 0.02 0.01 0.01 0.00 0.01 0.01 0.01 0.01 0.02 0.03 0.05 0.07 0.12 0.19 0.26 0.34 0.42 0.52 0.55 0.55 0.55 0.54
0.29 0.31 0.34 0.44 0.58 0.38 0.23 0.21 0.19 0.13 0.06 0.03 0.02 0.01 0.01 0.01 0.00 0.00 0.01 0.02 0.02 0.03 0.02 0.01 0.01 0.01 0.01 0.01 0.01 0.00 0.00 0.00 0.01 0.03 0.07 0.12 0.16 0.20 0.25 0.34 0.42 0.48 0.53 0.54
0.16 0.18 0.23 0.33 0.33 0.20 0.18 0.17 0.12 0.07 0.04 0.02 0.01 0.00 0.01 0.01 0.00 0.00 0.01 0.01 0.02 0.02 0.02 0.01 0.01 0.01 0.01 0.00 0.00 0.00 0.00 0.00 0.01 0.02 0.04 0.06 0.07 0.08 0.11 0.20 0.29 0.36 0.44 0.50
0.12 0.13 0.18 0.25 0.26 0.15 0.11 0.10 0.07 0.05 0.02 0.01 0.01 0.01 0.01 0.01 0.00 0.00 0.00 0.01 0.01 0.01 0.01 0.01 0.01 0.01 0.00 0.00 0.00 0.00 0.01 0.01 0.01 0.01 0.02 0.03 0.05 0.07 0.09 0.15 0.23 0.28 0.36 0.39
0.08 0.12 0.19 0.25 0.23 0.18 0.09 0.07 0.05 0.03 0.02 0.02 0.01 0.01 0.00 0.01 0.00 0.00 0.00 0.01 0.01 0.01 0.01 0.01 0.01 0.01 0.00 0.00 0.00 0.01 0.03 0.02 0.05 0.07 0.03 0.03 0.05 0.07 0.09 0.12 0.14 0.14 0.17 0.18